Location: Leipzig
(51.3392°N, 12.3528°E)
Time: 09:58:33
(UTC+01:00)

ISS - Visible Passes

Search period start: 17 February 2019 00:00
Search period end: 27 February 2019 00:00
Orbit: 403 x 411 km, 51.6° (Epoch: 17 February)

Date Brightness Start Highest point End Pass type
(mag) Time Alt. Az. Time Alt. Az. Time Alt. Az.
23 Feb -0.9 06:34:49 10° S 06:37:01 17° SE 06:39:13 10° E visible
24 Feb -0.7 05:44:55 10° SSE 05:45:46 11° SE 05:46:37 10° ESE visible
25 Feb -2.0 06:27:21 10° SSW 06:30:15 30° SSE 06:33:10 10° E visible
26 Feb -1.5 05:36:25 10° SSW 05:38:54 20° SE 05:41:24 10° E visible
